Folsom Lake Weather Center

Moon Phase Calendar



Folsom Lake Water Level
Online Cameras

 


      

Current Conditions in Granite Bay
12/3/2022 3:27:02 PM

49°F
Feels Like 49
Clouds
Humidity
95%
Pressure
29.91"
Wind
1 mph (NE)
Dew Point
47°F
UV Index
0/10 (Low)
Visibility
4 mi

Hourly Forecast

Date & Time Sat, Dec 3
3:00 PM
Sat, Dec 3
4:00 PM
Sat, Dec 3
5:00 PM
Sat, Dec 3
6:00 PM
Sat, Dec 3
7:00 PM
Sat, Dec 3
8:00 PM
Sat, Dec 3
9:00 PM
Sat, Dec 3
10:00 PM
Sat, Dec 3
11:00 PM
Sun, Dec 4
12:00 AM
Sun, Dec 4
1:00 AM
Sun, Dec 4
2:00 AM
Sun, Dec 4
3:00 AM
Sun, Dec 4
4:00 AM
Sun, Dec 4
5:00 AM
Sun, Dec 4
6:00 AM
Sun, Dec 4
7:00 AM
Sun, Dec 4
8:00 AM
Sun, Dec 4
9:00 AM
Sun, Dec 4
10:00 AM
Sun, Dec 4
11:00 AM
Sun, Dec 4
12:00 PM
Sun, Dec 4
1:00 PM
Sun, Dec 4
2:00 PM
Sun, Dec 4
3:00 PM
Sun, Dec 4
4:00 PM
Sun, Dec 4
5:00 PM
Sun, Dec 4
6:00 PM
Sun, Dec 4
7:00 PM
Sun, Dec 4
8:00 PM
Sun, Dec 4
9:00 PM
Sun, Dec 4
10:00 PM
Sun, Dec 4
11:00 PM
Mon, Dec 5
12:00 AM
Mon, Dec 5
1:00 AM
Mon, Dec 5
2:00 AM
Mon, Dec 5
3:00 AM
Mon, Dec 5
4:00 AM
Mon, Dec 5
5:00 AM
Mon, Dec 5
6:00 AM
Mon, Dec 5
7:00 AM
Mon, Dec 5
8:00 AM
Mon, Dec 5
9:00 AM
Mon, Dec 5
10:00 AM
Mon, Dec 5
11:00 AM
Mon, Dec 5
12:00 PM
Mon, Dec 5
1:00 PM
Mon, Dec 5
2:00 PM
Condition
Rain

Rain

Clouds

Rain

Rain

Rain

Rain

Rain

Rain

Rain

Rain

Rain

Clouds

Clouds

Clouds

Rain

Rain

Rain

Rain

Rain

Rain

Rain

Rain

Rain

Clouds

Clouds

Clouds

Rain

Clouds

Clouds

Clouds

Clouds

Clouds

Clouds

Clouds

Clouds

Clouds

Clouds

Clouds

Clouds

Clouds

Clouds

Rain

Clouds

Rain

Rain

Rain

Rain
Temperature 49°F48°F48°F47°F46°F45°F46°F46°F46°F46°F45°F46°F46°F45°F47°F47°F47°F47°F48°F49°F52°F52°F52°F52°F52°F51°F48°F46°F46°F46°F46°F46°F46°F46°F45°F45°F45°F45°F45°F44°F45°F47°F48°F49°F49°F50°F51°F51°F
Feels Like 49°F48°F48°F47°F44°F45°F45°F46°F46°F46°F45°F45°F43°F42°F44°F46°F47°F46°F46°F47°F50°F51°F51°F50°F50°F49°F46°F44°F44°F44°F44°F44°F45°F45°F45°F43°F43°F43°F43°F43°F44°F45°F46°F47°F47°F49°F49°F50°F
Cloudiness 100%100%100%100%100%100%100%100%100%100%98%98%95%85%100%100%100%100%100%99%100%100%100%100%100%100%96%98%97%98%98%99%100%100%98%98%99%99%100%81%87%90%92%94%100%100%99%97%
Visibility 4 mi2 mi1 mi1 mi0 mi4 mi1 mi5 mi6 mi4 mi2 mi6 mi6 mi6 mi6 mi6 mi6 mi6 mi6 mi6 mi6 mi6 mi6 mi6 mi6 mi6 mi6 mi6 mi6 mi6 mi6 mi6 mi6 mi6 mi6 mi6 mi6 mi6 mi6 mi6 mi6 mi6 mi6 mi6 mi6 mi6 mi6 mi6 mi
Precipitation 100%100%80%100%100%100%100%100%100%100%100%98%76%76%46%64%66%84%86%100%96%94%94%98%80%78%34%36%42%42%40%32%10%10%8%10%6%6%22%20%20%28%44%62%76%82%80%88%
Humidity 95%96%97%97%98%97%98%97%97%98%98%96%94%94%90%89%91%93%92%89%80%78%78%78%76%79%85%88%87%86%84%84%83%83%84%85%85%86%86%88%88%85%84%83%86%83%78%76%
Dew Point 47°F47°F47°F47°F46°F44°F45°F45°F45°F45°F44°F44°F44°F42°F43°F44°F44°F45°F45°F46°F45°F45°F45°F44°F44°F44°F43°F43°F42°F41°F41°F41°F41°F40°F40°F40°F40°F40°F41°F40°F41°F42°F43°F43°F44°F44°F44°F44°F
Pressure 29.91"29.91"29.91"29.94"29.94"29.94"29.94"29.97"29.97"29.97"29.97"30"30.03"30.03"30.03"30.03"30.06"30.09"30.12"30.12"30.12"30.12"30.09"30.09"30.09"30.12"30.12"30.12"30.12"30.12"30.09"30.09"30.09"30.09"30.09"30.09"30.06"30.06"30.03"30.03"30.03"30.06"30.06"30.06"30.06"30.03"30.03"30"
Wind Speed 2.2 mph1.9 mph1.6 mph2.9 mph4.3 mph1.8 mph3.2 mph1.2 mph3 mph2 mph1.7 mph3 mph4.6 mph4.9 mph5.4 mph3.1 mph2.1 mph3.4 mph4 mph5.2 mph6.9 mph5.9 mph8.5 mph8.1 mph6.7 mph4.9 mph4.7 mph4.6 mph4.3 mph3.9 mph3.9 mph3.8 mph3.6 mph3.5 mph2.7 mph3.5 mph3.8 mph4.3 mph4.1 mph3.4 mph3.2 mph3.8 mph3.9 mph4.2 mph3.8 mph3.7 mph3.4 mph3.3 mph
Wind
Direction
269°
W
263°
W
347°
NNW
270°
W
273°
W

N
223°
SW
172°
S
226°
SW
220°
SW
246°
WSW
123°
ESE
101°
E
108°
ESE
101°
E
115°
ESE
151°
SSE
177°
S
150°
SSE
167°
SSE
207°
SSW
177°
S
164°
SSE
151°
SSE
148°
SSE
122°
ESE
98°
E
90°
E
79°
E
76°
ENE
80°
E
84°
E
79°
E
77°
ENE
74°
ENE
78°
ENE
84°
E
87°
E
93°
E
107°
ESE
105°
ESE
108°
ESE
130°
SE
159°
SSE
154°
SSE
127°
SE
126°
SE
119°
ESE

Daily Forecast

Date High Low Precip. Humidity
Today
Dec 3

Rain
49 °F
41 °F
100%
91%
Sunday
Dec 4

Rain
52 °F
45 °F
100%
80%
Monday
Dec 5

Rain
51 °F
43 °F
100%
83%
Tuesday
Dec 6

Rain
51 °F
41 °F
64%
77%
Wednesday
Dec 7

Clear
52 °F
37 °F
0%
53%
Thursday
Dec 8

Rain
51 °F
38 °F
100%
51%
Friday
Dec 9

Rain
46 °F
38 °F
100%
81%
Saturday
Dec 10

Clouds
49 °F
34 °F
2%
57%
Sunday
Dec 11

Rain
48 °F
43 °F
60%
74%
Monday
Dec 12

Clear
53 °F
39 °F
0%
75%
Tuesday
Dec 13

Rain
47 °F
42 °F
58%
87%
Wednesday
Dec 14

Clouds
51 °F
38 °F
0%
67%
Thursday
Dec 15

Clouds
52 °F
40 °F
0%
58%
Friday
Dec 16

Rain
57 °F
44 °F
34%
46%
Saturday
Dec 17

Rain
55 °F
48 °F
100%
74%
Sunday
Dec 18

Rain
55 °F
49 °F
38%
80%

Temperature 8-14 Day Outlook



Precipitation 8-14 Day Outlook






About Us
Contact Us
Site Map
Search Site
Advertise With Us
   
Folsom.USLakes.info
THE FOLSOM LAKE WEBSITE

Copyright 2022, Lakes Online
Privacy    |    Legal